Theta_e
304 304 304 304 304 304 304 303 304 303 302 301 300 305 301 300 297 309 311 311 307 298 291 295 293 292 294 298 297 298 296 295 295 294 295 293 294 292 291 291 290 293 290 291 289 291 287 289 288 290 290 292 294 296 297 298 296 296 294 295 296 297 292 288 289 293 295 298 300 300 300 299 296 297 299 298 295 296 296 295 297 293 295 293 293 289 294
304 304 304 304 304 304 304 304 304 303 302 301 302 301 300 300 300 302 310 312 306 295 287 288 291 294 297 297 296 299 297 296 294 292 294 293 293 291 292 294 295 291 294 292 290 292 285 290 290 290 292 292 297 297 297 298 295 294 294 292 298 289 292 289 286 286 288 291 294 294 298 298 295 295 297 299 299 299 299 299 300 292 294 294 292 287 292
304 304 304 304 304 304 304 304 304 303 303 303 302 297 299 299 303 304 305 307 304 291 295 290 289 290 291 293 293 295 296 297 296 294 293 294 294 293 293 295 296 294 295 294 294 294 291 290 292 293 292 293 297 297 297 298 296 297 298 299 299 292 291 289 283 281 279 278 280 283 288 292 296 297 297 298 298 297 296 291 294 289 294 295 292 291 300
304 304 304 304 304 304 304 303 303 303 302 302 304 301 299 297 291 298 302 302 301 299 300 295 290 288 289 288 294 295 293 297 300 298 296 296 293 294 295 296 297 294 293 292 290 290 295 291 290 292 291 293 294 297 298 297 297 299 299 299 299 292 295 292 290 288 286 289 291 296 296 294 292 294 296 296 298 299 299 298 293 290 295 293 296 297 298
304 304 303 304 304 304 304 303 303 303 302 302 301 300 301 301 295 292 290 296 298 296 298 294 293 289 294 287 293 290 294 296 298 301 293 294 289 287 291 294 291 293 292 290 289 294 292 295 294 294 293 293 295 297 297 297 299 302 298 300 298 294 291 293 292 292 293 294 294 296 296 293 294 295 295 297 296 298 298 292 291 299 295 290 298 301 298
304 304 303 303 304 303 304 303 303 303 302 302 304 298 301 292 297 299 299 291 290 292 293 296 292 295 295 289 294 291 292 294 291 297 299 296 294 287 288 288 293 292 291 289 287 291 291 294 290 295 296 296 295 294 296 295 299 298 298 300 297 294 288 293 293 292 294 295 295 297 295 296 296 296 296 296 296 296 296 296 298 299 292 291 298 301 299
304 304 304 303 303 304 303 303 303 303 302 302 304 295 300 298 296 299 299 291 294 291 294 296 293 292 293 292 295 293 293 293 296 297 298 298 294 292 286 286 289 292 294 294 291 292 288 288 295 292 296 296 295 293 293 296 298 297 297 298 299 295 290 294 294 292 293 295 295 296 295 295 296 296 296 297 297 297 296 297 298 298 298 299 300 301 300
304 304 304 303 303 303 304 303 303 303 302 305 302 296 293 290 290 290 295 295 293 296 297 293 295 292 296 290 294 295 293 294 297 299 298 291 296 296 291 290 290 287 290 293 290 293 294 295 292 298 295 295 298 295 294 293 296 297 296 297 299 294 289 294 294 291 292 294 295 296 296 295 295 296 296 297 297 297 297 297 299 300 299 300 299 299 299
304 304 304 304 303 303 304 304 303 303 302 301 298 297 297 296 297 295 289 288 295 297 298 294 294 292 294 290 294 295 296 295 298 298 302 299 297 298 295 297 294 291 290 289 288 295 298 299 300 300 298 292 298 296 294 297 293 295 295 296 298 296 291 296 293 288 290 294 294 296 296 296 295 296 296 296 295 295 296 294 299 297 296 298 298 296 297
304 304 304 304 304 303 304 304 303 303 302 300 298 294 300 299 300 297 293 287 293 292 298 297 295 291 295 295 295 294 295 298 300 294 301 303 304 301 300 300 298 296 287 287 292 298 300 302 303 303 304 303 301 302 301 301 296 294 294 297 296 296 294 290 290 287 288 294 296 295 295 294 292 292 296 298 298 298 299 299 300 300 301 296 292 295 302
304 304 304 304 304 304 303 304 303 303 304 299 296 296 297 293 292 293 293 287 292 295 295 294 292 296 298 299 297 298 297 299 300 294 293 302 303 305 303 302 299 296 295 302 307 309 307 307 307 306 304 304 304 303 303 302 301 298 296 296 296 298 296 291 295 286 288 294 295 296 291 283 286 299 302 300 298 298 297 297 299 301 301 299 301 302 304
304 304 304 304 304 304 304 304 304 303 302 303 301 298 298 298 295 295 290 285 288 294 294 292 294 296 297 298 297 295 296 297 299 302 299 302 305 306 305 304 302 294 306 309 309 309 310 309 308 307 306 305 304 304 302 300 300 301 299 296 296 295 294 292 295 289 288 292 294 288 283 285 298 303 303 303 302 300 299 300 300 301 301 302 301 302 303
304 304 304 304 304 304 304 304 304 303 303 304 302 297 300 301 295 292 290 287 286 291 290 293 296 298 299 296 295 297 299 300 301 302 304 304 304 305 307 304 303 304 308 308 308 306 299 300 302 300 300 301 301 301 300 299 299 300 301 300 298 293 292 292 291 292 292 290 289 281 284 296 303 302 304 304 303 302 301 299 301 302 302 302 301 302 303
304 304 304 304 304 304 304 304 304 304 303 304 302 301 301 299 294 292 291 286 286 292 293 291 297 296 294 294 295 298 300 300 300 303 301 304 304 304 305 306 307 309 309 310 305 303 296 297 291 294 296 298 297 295 297 298 299 298 299 300 300 298 297 294 290 296 287 289 288 288 298 297 298 298 300 301 298 299 297 291 297 303 304 303 302 303 303
304 304 304 304 304 304 304 304 304 304 304 304 304 302 301 301 299 294 294 291 284 288 293 289 291 293 294 295 298 296 296 296 295 296 301 305 304 305 306 307 309 309 311 307 303 303 296 294 289 288 291 289 284 286 295 293 298 300 300 300 300 301 295 296 291 289 293 289 288 288 287 284 290 303 305 306 306 306 305 300 296 304 304 305 304 303 304
304 304 304 304 304 304 304 304 304 304 304 303 304 301 302 303 302 299 294 290 288 283 292 294 295 295 293 295 298 295 292 291 294 296 297 301 302 304 306 307 309 311 309 304 300 295 294 290 288 287 285 287 292 289 288 293 292 297 299 299 299 300 300 297 292 289 291 289 286 286 284 288 300 303 307 309 311 309 307 299 293 303 305 306 305 304 305
303 304 304 304 305 304 304 304 304 304 304 303 302 301 301 304 300 297 294 292 291 285 294 295 297 297 293 294 295 293 294 290 294 291 291 295 299 302 302 305 310 311 307 304 301 295 292 291 292 289 293 293 289 287 293 291 290 291 296 298 296 297 295 292 290 288 290 289 287 285 289 289 300 306 308 309 309 309 304 288 289 307 305 306 306 305 305
303 303 304 304 304 304 304 304 304 304 304 304 303 300 300 305 303 300 295 292 288 288 294 299 295 291 291 292 290 294 296 296 296 297 295 297 300 298 298 302 302 307 310 299 299 293 291 290 289 289 288 295 296 294 285 291 288 288 290 292 291 291 291 292 288 290 290 288 289 289 290 298 306 306 307 309 312 306 291 286 296 311 313 314 311 307 307
303 303 304 304 304 304 304 304 304 304 304 303 304 302 302 305 303 301 297 293 291 286 295 298 297 295 297 298 295 296 296 296 295 291 292 293 297 299 299 301 304 297 303 297 300 294 292 291 295 294 290 292 295 287 294 289 288 293 293 290 291 291 291 291 293 290 289 290 288 287 291 301 307 308 308 310 306 291 289 305 314 315 313 312 313 314 313
303 303 304 304 304 304 304 304 304 304 304 304 304 300 301 304 304 302 296 290 292 290 293 295 296 294 297 294 292 292 294 296 297 295 294 290 299 298 298 294 300 303 299 301 292 298 293 290 293 297 291 292 295 298 292 293 297 293 292 294 290 291 288 288 290 292 294 290 287 286 284 296 310 309 306 309 297 300 310 314 315 316 314 314 316 314 316
303 303 303 303 304 304 304 304 304 303 303 303 303 300 298 305 303 303 302 297 291 287 291 299 298 296 297 296 297 296 294 292 294 293 295 295 299 296 289 288 295 297 293 294 290 291 294 292 295 293 298 293 297 297 290 290 293 299 297 295 293 298 289 290 292 297 288 289 287 287 295 302 311 310 297 309 312 314 317 316 313 315 315 314 316 317 319
303 303 303 304 304 304 303 303 303 303 304 303 303 303 298 303 304 304 303 301 293 289 292 297 299 297 299 300 300 300 298 298 299 300 296 293 299 297 296 299 300 300 301 300 297 294 297 296 299 294 293 295 299 293 297 290 288 297 300 298 289 300 295 297 290 298 293 290 293 300 305 306 310 312 313 315 317 319 319 317 315 314 314 315 315 317 318
303 303 303 303 303 303 303 303 303 303 303 303 303 302 298 300 302 306 304 296 298 297 299 298 299 300 301 302 304 304 304 304 302 302 301 296 293 298 298 300 299 305 304 303 297 296 297 296 292 297 295 297 294 293 298 297 291 295 292 299 297 304 304 307 301 298 303 303 303 305 305 306 310 313 316 316 317 319 318 314 314 316 317 319 320 320 320
303 303 303 303 304 304 304 303 303 303 303 303 303 302 300 302 302 301 300 298 294 290 294 299 298 295 299 299 303 307 305 303 304 305 306 303 293 294 301 304 305 305 303 305 305 299 298 297 297 299 291 297 299 295 291 290 291 300 298 295 299 302 304 302 296 301 296 291 303 303 304 309 313 312 317 316 317 318 319 317 317 317 318 319 321 323 322
303 303 303 304 304 304 304 304 304 303 303 303 304 304 304 302 303 302 297 289 290 289 285 289 293 300 303 305 305 303 305 306 308 306 305 304 301 297 297 302 306 302 301 304 306 302 297 293 296 298 290 300 301 292 300 294 294 302 295 298 299 297 307 301 300 300 295 294 302 306 309 311 314 314 314 314 315 317 319 318 320 319 318 318 318 320 320
303 303 303 304 304 304 304 303 303 303 303 303 304 302 300 300 303 304 301 298 297 293 286 287 294 302 304 301 300 302 305 305 306 307 306 305 304 304 302 303 303 306 305 306 305 297 294 293 295 295 295 294 305 295 295 300 298 302 298 299 304 305 305 296 301 299 300 303 305 307 308 311 311 314 317 316 316 315 318 320 318 318 317 318 318 319 318
303 303 303 304 304 304 304 303 303 303 303 304 303 304 303 302 304 302 298 297 292 288 291 289 294 298 300 297 302 304 305 305 305 305 305 306 304 305 304 303 302 302 302 302 304 300 297 296 295 295 300 299 303 302 302 301 301 295 297 304 309 304 299 303 301 294 295 297 303 305 298 298 309 314 315 315 316 317 318 317 317 317 316 316 317 318 319
302 303 303 304 304 304 304 303 303 303 303 303 304 303 304 302 303 304 304 301 296 288 288 288 290 295 300 298 305 305 304 304 304 304 304 304 305 305 304 303 303 301 301 300 296 297 296 295 296 298 299 305 301 298 306 305 302 300 301 301 305 304 305 304 299 298 295 306 308 310 309 309 312 312 315 317 317 316 315 314 315 316 317 317 317 316 317
303 303 303 304 304 304 303 302 303 303 303 303 303 302 302 305 305 306 305 306 302 295 292 291 294 294 291 298 302 301 303 304 304 304 304 304 304 305 304 304 303 303 303 301 298 298 297 297 298 299 300 306 300 297 301 293 294 292 297 304 306 309 310 308 305 306 308 308 311 312 311 308 313 315 315 316 318 317 314 316 316 315 315 316 316 316 316
303 303 304 304 304 303 302 302 303 303 303 303 301 299 296 297 303 304 305 304 302 298 289 287 285 290 301 300 301 302 302 304 303 303 303 303 304 304 304 304 304 304 303 300 299 295 298 298 297 304 307 312 302 298 294 296 294 298 304 306 307 309 310 311 312 309 306 313 312 314 313 314 314 314 314 314 316 316 315 314 315 316 316 316 315 316 317
304 304 304 303 302 302 302 302 302 303 303 301 299 292 291 289 298 304 302 305 304 297 291 290 287 293 293 302 303 301 302 302 302 302 303 304 305 306 307 306 306 305 299 300 300 299 299 296 295 300 307 309 302 297 297 297 294 297 301 304 306 308 310 310 312 312 312 313 312 313 314 314 314 312 313 314 315 315 316 317 315 314 316 315 316 317 317
304 304 303 302 302 302 302 302 303 303 303 299 296 295 297 298 301 304 303 303 302 296 289 286 287 289 291 295 302 305 303 302 301 302 303 306 305 307 307 305 304 307 302 300 300 300 298 298 297 301 301 308 301 298 298 297 293 297 303 305 306 308 309 311 311 312 313 314 312 310 311 312 314 312 311 313 315 315 316 315 316 315 314 315 316 316 318
304 303 302 302 302 301 302 302 303 303 301 302 303 302 301 301 301 302 303 303 300 295 295 288 285 288 288 295 300 303 303 302 302 304 301 307 304 308 303 307 306 305 308 301 297 296 302 298 297 297 303 309 297 295 298 295 299 304 304 304 306 308 309 311 311 312 313 312 311 305 306 310 312 314 314 314 314 314 314 313 314 316 315 315 315 313 313
303 302 302 301 302 302 302 303 302 302 301 299 297 299 304 302 304 302 303 302 297 296 293 287 284 286 288 299 295 301 302 297 298 301 294 305 306 303 298 304 306 298 304 300 301 299 301 300 296 296 302 296 301 296 292 298 302 303 305 305 307 308 309 310 311 311 311 312 313 313 313 313 314 314 313 313 313 313 314 314 313 312 313 313 313 313 314
302 301 301 301 302 303 302 301 301 300 299 300 301 304 302 300 301 304 301 299 290 288 288 288 289 286 287 290 290 297 303 300 297 300 294 299 305 299 301 296 298 296 298 308 300 298 296 297 303 295 294 302 296 292 293 298 301 303 304 304 306 306 306 307 309 312 311 312 311 313 313 314 312 309 309 310 311 311 312 313 313 312 312 311 311 312 313
301 301 301 302 302 303 302 301 300 299 298 298 300 300 300 300 301 305 304 302 297 291 289 289 290 287 288 286 287 294 303 298 302 301 300 300 299 304 301 297 293 297 307 300 295 300 294 302 297 291 295 293 291 295 298 301 300 301 303 304 306 306 305 306 310 311 312 313 311 312 312 313 311 311 311 310 310 310 311 311 311 311 310 310 310 310 312
301 302 302 302 303 301 299 298 301 302 301 302 300 300 298 300 305 304 302 299 300 300 292 289 287 288 292 291 293 294 299 291 299 296 299 295 293 296 296 294 292 296 297 295 295 293 298 305 296 291 291 290 293 300 301 301 302 302 302 304 305 306 305 307 311 312 312 312 310 310 310 309 309 309 310 309 309 310 309 309 308 308 307 307 307 307 309
302 301 301 300 299 294 293 296 301 303 298 299 300 298 299 297 292 293 293 291 295 296 292 293 288 292 296 293 288 299 298 294 299 293 294 297 293 293 296 293 294 294 289 292 296 303 298 295 293 291 292 299 301 301 301 302 303 305 306 307 307 308 308 312 312 310 306 304 306 308 307 308 307 308 308 308 309 308 309 309 308 308 308 308 308 309 309
300 301 300 300 296 292 293 301 302 298 301 301 300 294 291 295 291 289 289 291 291 288 292 292 290 295 294 292 294 301 298 293 293 296 290 298 292 289 294 289 294 293 291 290 294 301 291 292 293 293 292 297 298 301 302 303 304 308 308 309 311 310 314 312 311 310 308 306 304 309 309 308 308 309 310 310 310 310 309 309 309 308 309 309 309 309 311
301 297 295 294 294 296 301 302 300 300 299 294 296 293 288 292 288 286 294 288 288 291 294 289 296 295 296 293 292 293 302 297 291 291 292 294 302 291 293 292 294 291 287 288 291 300 291 288 291 291 291 296 297 301 302 303 305 308 308 308 311 312 314 313 312 312 312 311 310 308 311 310 310 308 308 307 307 306 308 309 310 310 310 309 308 310 310
299 298 297 294 299 301 302 303 304 301 295 291 291 290 288 286 291 291 289 287 287 289 296 294 296 295 298 298 297 292 300 303 301 300 296 291 300 297 291 287 294 289 287 287 294 294 292 290 290 289 290 297 300 302 303 304 306 308 308 309 310 312 313 312 310 312 311 310 310 310 311 312 312 311 310 309 307 307 307 309 310 311 311 311 310 311 312
301 299 300 302 301 302 302 300 297 293 292 293 287 283 287 288 291 290 290 284 287 291 294 295 291 293 293 296 296 297 296 303 300 296 293 289 295 292 290 292 293 288 285 292 298 294 291 287 288 289 296 300 302 304 304 304 306 307 308 309 310 311 311 311 309 309 310 310 311 310 310 311 312 310 310 309 308 308 308 309 309 310 311 311 312 312 312
299 301 301 298 297 296 296 290 293 292 284 284 283 280 286 283 286 285 288 292 296 293 294 300 298 300 300 302 298 301 297 303 295 293 292 290 295 294 291 290 289 284 289 296 292 289 288 287 288 291 299 300 302 303 304 306 306 308 308 310 311 312 311 310 310 309 310 310 310 310 309 310 311 311 310 310 310 310 310 309 309 310 311 311 311 311 311
301 299 294 293 290 291 292 281 293 288 285 286 283 279 282 282 285 288 285 289 293 292 295 292 293 293 288 297 294 294 296 298 297 295 294 295 292 289 289 286 287 293 297 291 289 287 288 290 292 296 300 301 302 303 304 305 307 306 308 308 310 311 310 310 310 309 309 311 310 309 309 310 311 311 310 309 309 308 309 310 311 310 310 311 311 310 310
293 291 290 289 286 290 287 279 291 287 281 284 286 285 286 283 287 289 288 292 294 291 294 295 295 294 291 296 295 296 294 291 297 291 289 292 289 290 287 287 291 292 288 286 288 288 289 288 296 298 299 300 301 303 304 305 306 306 306 307 309 309 310 310 310 309 309 309 309 308 309 310 310 309 309 309 309 310 310 310 310 309 310 310 310 310 311
290 289 289 283 279 285 286 282 286 283 288 290 288 291 291 292 291 291 294 296 294 294 293 294 294 294 292 295 291 290 294 294 291 291 293 293 287 285 292 296 293 287 286 287 284 285 286 292 295 296 300 300 301 303 303 304 306 307 306 306 309 308 309 311 309 308 308 310 310 310 309 308 308 309 309 310 310 310 311 311 311 310 309 308 308 309 309
290 290 289 288 283 286 288 283 284 288 290 292 294 293 293 293 294 295 296 296 294 296 295 296 295 294 291 292 292 292 293 294 289 291 293 287 286 290 294 289 284 286 284 283 284 285 289 295 297 300 300 300 301 301 302 302 305 306 306 307 307 307 309 309 310 309 310 310 309 309 308 308 309 310 310 308 309 311 310 310 310 310 309 307 308 308 308
286 290 289 281 280 285 284 286 292 293 293 293 294 294 295 295 293 293 295 296 296 296 294 294 292 293 292 297 295 289 291 292 289 290 292 289 291 287 286 286 286 288 289 286 286 291 294 296 297 298 300 301 300 300 300 301 302 304 306 307 307 307 307 307 308 308 308 307 307 308 309 309 309 308 307 308 308 310 309 309 309 309 308 308 308 308 307
292 290 286 285 287 287 287 292 292 289 292 294 294 293 293 292 292 293 294 296 295 294 295 293 291 291 287 291 290 289 287 291 286 287 290 289 285 282 283 282 284 284 288 290 291 293 295 297 299 299 300 300 300 299 299 299 301 302 305 306 306 307 306 308 308 309 308 308 307 308 308 308 308 306 306 306 306 307 308 308 308 307 307 306 306 306 306
288 288 290 287 287 288 291 292 290 288 291 292 292 291 293 292 292 294 297 294 295 294 295 294 294 289 289 289 286 288 287 290 288 289 287 284 285 287 285 282 285 285 288 292 294 295 298 299 299 298 298 299 298 298 298 299 297 299 302 304 307 306 307 307 308 309 308 308 308 308 308 306 305 305 305 306 307 307 306 306 306 306 307 306 306 306 305
292 289 290 294 289 288 290 285 286 287 288 290 291 291 291 291 292 293 296 295 294 292 290 288 289 288 287 286 285 282 286 291 288 286 285 285 288 286 284 283 286 290 292 295 296 297 297 297 297 296 296 296 297 298 297 298 298 298 300 302 302 306 308 309 307 308 309 308 308 302 306 307 306 307 307 307 306 305 305 304 304 305 305 306 305 306 306
288 285 287 291 293 292 291 291 291 290 291 292 291 292 293 291 293 294 297 294 293 289 287 290 288 286 285 283 286 289 291 288 286 287 285 287 288 285 286 288 292 293 294 294 295 295 295 295 295 293 294 293 294 296 296 297 297 297 298 298 299 299 300 304 306 306 309 309 309 309 310 309 308 309 307 307 306 305 304 304 304 305 305 306 306 306 306
Wind_Speed
17 17 17 18 20 21 22 24 22 21 21 11 9 7 6 5 5 6 5 2 5 6 7 8 6 6 7 11 11 9 8 8 6 8 5 6 3 3 6 7 7 3 3 6 7 6 5 5 7 6 6 7 5 12 15 13 14 11 9 8 8 6 5 8 11 12 14 16 17 17 17 18 16 15 14 16 17 17 14 12 10 11 11 9 8 7 5
16 17 18 18 20 21 22 24 22 21 18 11 9 7 5 7 3 4 3 2 3 4 4 6 7 10 13 14 13 11 5 6 7 5 5 4 2 4 4 6 5 8 5 7 8 6 3 4 5 5 5 4 5 13 16 17 11 10 7 7 8 6 5 9 10 10 12 14 14 14 14 14 13 13 14 15 16 20 15 12 11 11 14 12 10 8 8
16 16 17 18 20 20 21 23 22 21 18 14 6 6 6 8 7 4 6 5 4 3 5 5 7 10 13 14 15 13 8 4 3 6 5 2 7 6 4 5 7 8 7 9 8 8 8 3 5 8 1 4 3 10 14 13 10 8 3 6 5 6 6 7 9 12 13 12 14 16 16 17 13 17 18 18 17 18 15 13 12 10 11 16 9 8 8
14 15 16 18 19 20 20 21 21 22 19 16 7 5 7 5 5 3 6 5 4 7 5 5 4 8 9 12 10 13 12 11 7 1 3 6 4 6 11 9 7 8 7 7 5 5 7 6 2 3 3 6 6 8 12 13 11 12 2 5 6 5 5 7 9 10 12 13 12 12 15 14 15 18 20 20 19 19 19 12 11 12 9 11 12 10 9
15 15 16 17 18 19 19 20 20 22 23 17 8 5 4 7 4 5 6 5 7 5 3 2 4 6 9 7 10 12 14 14 8 3 4 6 7 1 3 7 8 4 5 5 6 7 6 8 7 4 5 2 5 10 11 14 13 15 6 8 5 6 5 8 12 11 7 10 13 14 17 17 19 20 21 20 20 18 17 13 14 11 9 10 11 14 13
15 15 17 16 17 19 19 21 20 22 23 24 11 7 3 5 4 6 5 4 5 7 1 7 8 11 9 6 7 10 15 16 12 10 3 11 6 3 2 2 8 6 5 4 5 4 5 4 4 4 6 4 5 8 9 12 11 6 7 9 7 6 5 8 11 10 9 10 12 16 18 18 18 18 19 21 21 20 19 17 16 14 10 7 12 12 15
15 16 16 16 16 17 18 19 20 23 25 22 6 7 5 4 7 2 7 5 5 4 9 11 8 13 12 7 8 12 14 16 13 11 12 2 6 8 3 4 5 9 7 6 7 9 4 3 2 2 5 4 5 6 9 10 12 11 8 8 7 6 7 8 9 10 11 9 9 10 14 15 18 20 20 20 19 19 17 16 15 17 14 11 8 11 11
14 14 14 15 17 17 18 19 19 22 26 19 4 8 6 6 7 5 10 8 12 13 9 5 9 8 7 6 10 12 13 15 16 13 11 8 6 10 5 8 10 7 9 6 8 9 7 5 3 1 7 8 4 4 6 6 11 12 9 7 8 7 3 6 8 8 10 10 6 7 10 14 18 19 19 19 18 17 16 14 14 14 13 12 11 12 14
13 13 14 13 14 16 16 18 18 20 23 8 8 7 7 4 4 5 8 11 6 8 6 5 7 8 7 6 11 12 14 15 16 15 11 7 10 7 10 13 7 9 9 10 10 15 12 9 9 7 6 4 4 2 3 7 9 13 10 7 7 8 4 5 7 6 8 11 10 10 10 12 13 15 20 21 21 19 16 14 14 14 14 14 12 11 8
13 13 13 13 13 15 15 16 17 18 21 7 7 7 6 5 3 5 5 7 7 9 9 8 5 6 8 8 12 11 16 15 16 12 7 6 10 10 11 13 9 4 12 12 12 12 11 10 10 8 9 7 7 8 9 9 6 9 9 8 7 7 5 3 4 7 4 7 8 9 11 9 11 15 17 17 16 15 15 15 16 15 13 12 10 12 8
12 12 12 14 13 13 15 16 16 16 13 9 7 7 8 7 7 6 5 9 9 8 9 8 5 7 10 11 14 14 15 16 14 12 8 12 11 11 12 13 10 7 4 6 5 7 10 11 9 9 11 12 10 9 9 10 8 9 9 7 6 8 7 4 4 5 4 5 8 7 8 12 12 10 14 16 15 15 16 14 15 14 13 10 9 8 10
12 12 12 13 14 12 13 15 15 14 13 9 6 6 6 6 6 5 6 8 8 10 9 7 9 10 12 14 14 15 16 16 15 12 14 11 13 13 13 11 9 8 10 11 10 9 10 10 11 10 13 12 12 12 11 10 9 8 9 9 6 7 7 4 4 4 4 7 6 6 10 10 4 6 12 15 15 14 15 12 14 15 16 16 14 13 14
11 12 12 13 13 14 13 14 14 14 11 10 8 6 6 6 5 6 6 7 9 10 10 11 14 13 11 15 17 16 17 15 12 13 10 11 12 11 9 10 12 12 13 12 12 10 8 7 6 10 10 10 10 11 12 13 12 10 7 9 8 5 5 3 3 4 4 5 5 7 8 2 1 4 6 11 14 12 12 14 14 15 16 16 15 16 14
10 10 12 12 13 12 13 13 13 12 11 10 9 6 5 5 7 6 5 6 9 9 10 13 11 13 17 17 15 17 16 13 15 11 11 10 10 11 11 9 11 11 11 8 6 2 2 4 2 3 7 6 6 8 11 12 12 14 11 7 7 7 4 1 3 2 4 3 3 5 5 7 6 6 7 9 12 13 12 8 12 13 14 14 14 17 16
10 10 11 12 13 13 12 12 13 12 11 11 9 8 5 4 6 5 5 5 10 14 11 5 12 14 15 15 13 13 12 13 14 11 14 9 8 10 12 13 12 12 11 8 7 6 2 4 4 5 5 5 6 6 9 10 10 13 12 7 6 5 6 2 2 2 6 5 3 5 4 5 6 4 3 4 3 5 10 9 9 13 14 14 16 16 14
11 11 11 12 13 13 11 12 13 12 11 11 9 7 5 2 4 5 6 6 8 9 4 13 14 13 12 12 12 12 10 10 11 12 12 10 11 14 12 14 12 12 10 6 4 1 4 4 3 4 5 5 7 6 7 9 9 13 13 11 8 1 1 2 2 4 7 5 4 1 4 2 4 5 1 1 1 3 4 7 9 9 13 14 16 15 13
11 11 12 13 13 13 12 11 12 13 12 9 9 8 6 1 4 5 6 6 6 12 16 17 11 11 11 9 9 9 10 9 10 9 11 12 15 15 16 15 12 10 11 11 3 2 3 2 5 3 2 6 6 5 8 8 9 12 12 7 9 6 2 2 3 7 5 5 3 2 2 1 4 5 3 2 4 3 6 8 5 5 6 14 14 13 12
12 12 12 13 13 13 12 12 12 13 12 9 9 9 9 5 3 5 6 7 8 12 9 6 10 11 9 9 11 11 10 9 9 9 9 12 10 14 17 14 12 11 13 7 6 4 5 5 3 4 4 3 5 9 7 9 9 8 11 10 7 5 1 2 6 6 7 7 0 2 3 2 5 4 3 3 3 7 8 6 3 6 8 8 5 11 13
12 12 12 13 13 13 13 13 12 12 12 11 10 10 7 4 5 4 6 8 7 11 13 16 15 13 13 11 11 11 10 12 11 9 9 9 9 18 24 5 7 9 11 7 8 4 4 4 2 4 2 3 4 6 8 8 8 9 10 10 7 3 1 3 8 8 4 3 2 1 2 5 4 9 3 4 6 6 4 6 6 5 7 4 7 3 3
12 11 12 12 12 12 13 13 13 12 13 13 10 9 9 9 5 5 6 8 8 13 15 16 14 15 9 10 10 9 9 9 8 8 8 10 12 18 13 3 9 10 9 10 7 7 6 6 5 3 6 1 2 3 7 7 8 10 9 9 6 6 3 3 5 3 3 4 2 1 3 2 5 11 6 3 3 2 5 1 2 6 7 9 2 3 2
12 12 12 12 12 12 12 12 12 12 13 13 11 8 9 2 4 6 7 8 9 13 11 4 8 14 15 16 16 16 14 13 11 10 10 10 11 10 8 7 11 8 7 7 7 6 5 5 7 3 0 3 4 3 4 5 8 10 9 8 8 7 6 4 3 2 3 3 1 1 1 4 7 4 1 4 6 2 1 1 3 5 6 5 1 2 3
12 13 12 12 13 12 12 11 12 12 13 12 12 10 9 7 5 5 7 7 10 12 14 19 18 19 21 19 17 15 16 17 16 11 11 11 8 8 9 11 9 6 5 5 5 3 7 5 6 3 7 6 6 3 10 3 5 8 5 5 4 7 5 3 1 6 3 1 3 6 5 5 3 6 2 5 2 1 1 3 5 5 6 2 3 4 4
12 13 13 12 13 13 12 12 13 13 14 13 11 7 9 9 8 6 7 10 10 13 14 16 15 16 17 19 19 16 15 14 14 12 10 9 9 8 8 7 6 4 4 4 6 7 7 8 5 6 7 2 5 3 8 6 2 8 7 10 3 4 3 2 3 5 7 7 12 6 7 8 2 2 4 1 4 3 3 5 5 6 7 6 6 6 6
12 14 14 14 15 15 14 13 14 14 14 13 10 10 10 9 9 8 8 9 10 13 12 8 7 4 6 7 2 7 12 13 13 12 8 8 8 8 7 1 9 4 4 4 3 5 7 5 5 2 5 5 6 3 4 3 2 4 2 7 9 8 2 1 4 4 2 2 6 5 7 1 3 2 3 3 4 4 3 4 7 8 8 7 7 8 8
13 13 14 15 15 15 14 13 13 13 12 12 12 11 11 10 9 7 8 8 8 8 10 10 12 13 12 9 10 11 10 9 10 12 11 11 12 10 10 9 9 8 9 5 2 5 2 4 6 5 7 5 3 3 2 4 2 7 4 4 6 6 2 6 8 7 6 3 5 4 2 4 7 1 2 2 5 5 6 5 6 8 9 9 10 10 10
14 14 14 14 14 15 13 12 12 11 11 11 13 11 10 10 8 8 8 8 8 7 9 10 9 9 10 14 14 13 13 11 10 11 14 15 15 15 14 12 11 9 9 5 3 3 3 4 5 6 5 3 5 4 3 6 6 10 7 4 6 2 4 5 5 7 4 13 9 5 8 4 5 2 5 4 5 4 4 3 6 7 6 7 10 11 10
14 14 14 14 15 14 13 12 12 11 11 12 10 10 10 10 8 8 8 7 8 7 7 10 11 13 13 20 17 10 8 8 9 10 12 15 16 14 12 12 11 9 8 8 5 4 4 5 5 8 5 5 6 6 3 4 3 3 4 2 6 4 6 8 7 3 5 3 7 14 4 2 3 3 4 6 7 6 3 4 7 7 7 6 7 9 10
13 14 15 15 16 14 12 12 12 10 11 13 12 10 9 9 9 9 7 7 7 7 11 13 12 15 19 20 8 6 8 10 10 11 11 12 15 14 13 12 10 9 8 7 5 4 5 5 6 6 7 3 6 2 1 4 5 6 4 3 11 6 4 5 4 4 2 4 2 3 5 3 2 1 1 6 3 3 7 7 8 7 8 4 5 7 8
14 14 16 16 14 12 12 11 11 9 11 12 10 10 11 12 7 2 4 4 5 8 9 12 14 13 8 10 16 13 7 7 8 9 10 12 12 13 13 12 11 9 8 7 6 6 6 6 5 6 6 5 5 5 6 3 3 3 3 10 6 6 2 5 5 10 9 5 5 3 2 4 1 3 3 5 5 4 6 6 3 3 2 5 8 9 8
15 15 16 14 11 11 11 10 10 9 9 9 8 8 6 3 4 1 2 2 3 5 6 8 10 4 10 9 8 8 10 9 10 10 12 11 12 11 11 11 11 9 9 6 4 6 5 6 5 9 8 1 6 5 5 3 5 3 10 11 5 5 2 2 3 4 6 5 5 4 3 5 3 7 7 6 9 9 6 6 6 5 6 7 8 8 9
15 15 13 11 11 11 11 11 10 8 10 8 6 4 4 1 5 3 4 4 3 4 5 5 10 11 10 9 10 11 11 10 9 9 10 10 9 10 9 8 8 8 6 6 6 7 4 5 5 7 7 1 3 5 8 8 5 2 7 9 9 10 3 1 3 5 7 7 1 5 6 1 7 7 4 6 7 5 1 4 5 6 6 8 9 8 7
15 14 12 11 11 12 12 12 10 8 8 8 8 6 6 6 5 3 2 4 3 5 3 7 8 5 5 6 5 9 9 10 11 8 8 7 7 4 6 8 7 8 7 6 5 4 6 5 7 8 9 3 2 6 8 6 6 4 6 11 5 11 2 3 4 5 5 4 6 3 2 4 6 3 3 4 4 6 6 6 7 5 3 6 6 7 7
13 12 12 12 12 13 13 12 11 9 9 11 17 19 19 15 11 9 3 4 4 4 3 4 6 5 5 7 12 7 5 9 7 5 5 4 5 4 6 6 6 7 6 5 4 3 3 3 3 7 5 2 3 4 7 7 7 5 6 7 5 4 5 2 3 2 1 6 6 2 5 1 0 2 1 2 4 6 6 6 8 8 5 4 6 5 4
11 11 12 13 12 13 13 14 12 11 12 9 9 8 2 4 7 16 9 5 4 4 2 3 4 6 9 9 11 5 8 7 8 2 4 2 2 4 5 5 6 4 5 7 5 6 4 5 5 5 5 5 5 3 5 8 8 9 7 5 2 4 5 1 3 5 7 2 5 4 3 5 5 2 2 4 6 6 5 5 8 12 11 5 6 6 5
10 11 12 13 14 14 15 14 10 7 7 6 5 6 4 6 9 4 10 6 4 2 3 3 3 8 8 6 6 4 8 8 7 5 5 4 3 7 5 5 2 4 3 7 5 5 5 5 5 4 5 2 2 3 4 9 8 8 7 6 4 4 6 5 4 2 4 7 2 4 4 5 4 2 3 4 4 4 6 5 2 4 5 4 6 7 6
10 11 13 14 16 14 10 7 7 7 5 4 1 6 6 4 4 3 7 7 6 5 4 4 3 7 6 8 7 4 7 9 5 6 6 4 6 5 5 5 6 5 2 3 6 5 5 1 1 6 3 4 4 4 6 6 9 9 9 9 7 6 7 7 5 3 4 7 7 4 1 4 3 1 1 1 1 2 4 4 1 2 3 4 6 6 6
9 11 14 16 11 6 7 4 4 5 2 6 3 1 2 2 4 5 5 5 5 5 6 5 6 8 6 6 4 3 7 6 6 6 5 3 3 2 4 3 7 1 2 5 6 7 2 1 3 5 5 5 5 5 8 8 8 9 9 9 8 8 8 7 2 3 5 5 8 2 4 4 4 2 3 2 0 1 2 2 3 4 5 5 6 6 5
9 11 8 7 6 4 4 3 1 4 5 4 3 4 5 4 2 2 1 3 3 4 4 5 8 8 6 6 7 7 7 6 7 6 4 2 3 4 3 4 4 1 5 5 2 1 2 2 4 5 5 7 8 8 6 7 7 6 6 7 7 7 7 2 4 3 7 8 6 11 12 12 8 4 1 3 5 4 2 1 2 2 2 3 3 4 4
10 7 6 7 4 4 2 5 3 1 2 2 5 3 3 3 2 2 3 3 2 4 4 7 9 7 7 7 7 4 5 6 8 5 5 5 2 4 3 4 0 2 5 6 3 2 6 4 4 4 5 8 5 6 3 3 4 4 5 5 5 4 3 2 3 2 2 5 3 10 3 3 5 9 10 9 5 4 3 2 2 1 1 2 4 4 5
5 6 3 3 5 2 5 8 7 3 4 3 3 3 3 3 3 3 3 3 4 4 3 5 7 8 6 6 6 7 3 5 6 6 6 7 2 4 2 4 3 2 5 6 1 2 4 4 3 3 3 3 7 6 5 5 5 5 5 5 6 3 3 3 4 3 2 1 2 7 9 2 1 1 1 3 2 3 3 2 2 1 3 5 5 5 5
6 4 5 4 3 3 4 2 4 5 3 3 2 2 2 3 4 2 2 4 5 1 4 6 4 6 3 4 6 6 1 3 4 5 4 6 2 3 3 4 2 3 3 6 0 0 4 4 4 4 1 7 5 6 6 5 5 4 4 5 4 4 2 4 3 2 2 2 3 4 5 5 2 2 3 3 2 2 2 2 2 1 1 2 3 4 4
4 5 6 7 6 6 5 5 3 2 2 3 2 4 4 3 2 2 2 4 2 0 4 3 6 5 6 6 7 6 5 3 5 3 2 4 1 2 3 4 3 4 4 2 3 4 2 5 4 4 6 8 9 9 8 6 5 6 6 5 5 3 3 3 3 2 0 3 4 4 4 5 4 3 1 1 1 2 3 3 3 2 2 3 2 2 4
1 4 6 5 3 2 2 3 3 2 2 2 2 3 2 3 3 5 3 4 1 4 0 4 4 5 5 2 6 4 5 3 3 2 3 4 2 2 4 4 3 5 5 4 3 3 5 4 5 2 9 9 11 11 10 8 7 7 4 4 3 3 4 6 5 3 3 3 4 5 6 6 5 2 1 0 0 0 2 3 2 1 0 1 2 2 2
5 5 5 2 2 2 2 3 2 1 2 2 3 4 5 5 5 3 3 1 2 2 2 5 5 6 4 2 6 4 3 3 2 2 3 2 2 2 2 4 5 3 5 3 4 7 5 3 6 7 9 10 9 11 12 10 9 7 7 5 4 1 5 6 6 6 5 4 4 5 8 8 4 2 2 1 2 3 3 3 2 2 2 1 2 2 2
3 2 2 2 2 1 2 2 2 2 4 5 4 6 3 4 2 3 1 3 3 6 5 6 6 6 8 6 5 4 1 3 1 3 3 3 3 3 3 4 4 3 4 5 4 4 5 0 6 7 12 12 12 12 13 12 10 8 8 7 5 4 2 5 4 3 4 5 8 9 7 5 4 3 2 2 3 3 3 3 4 2 1 1 1 1 1
4 3 3 3 2 3 3 3 2 3 4 3 4 6 6 5 4 4 5 3 5 6 6 6 7 7 9 5 4 4 3 4 4 3 3 2 3 4 2 2 3 5 4 5 5 7 2 8 8 10 11 13 13 13 13 13 12 10 10 8 8 5 4 3 5 7 8 6 5 5 4 3 3 3 4 4 3 3 3 3 1 1 1 1 1 1 1
2 1 2 2 3 2 2 4 4 4 3 3 4 4 4 5 4 5 6 5 6 6 6 6 7 7 8 6 5 4 4 2 3 3 3 4 4 2 2 3 4 3 4 6 5 3 5 7 8 9 12 13 14 14 13 12 12 12 11 10 9 9 5 4 3 4 3 3 4 3 3 3 4 4 4 3 4 3 3 2 1 2 3 3 2 1 1
3 1 1 3 3 3 5 5 6 5 3 5 5 4 4 4 5 6 3 3 4 5 6 7 7 6 7 3 4 6 6 4 5 4 3 3 2 3 2 2 4 3 2 3 2 4 5 8 9 10 11 12 13 14 14 14 13 14 12 10 8 9 12 8 5 4 3 4 3 4 3 3 4 4 4 3 3 2 1 2 1 2 3 2 2 0 2
2 2 2 2 2 1 3 5 4 6 5 3 2 4 5 6 6 5 4 4 5 6 6 6 4 4 6 3 5 5 6 2 5 3 1 2 2 3 3 3 4 3 4 4 5 6 8 9 10 11 12 12 12 12 13 13 14 13 13 11 11 7 6 12 9 2 3 3 4 4 4 4 3 2 2 3 4 4 2 1 2 3 3 3 2 3 3
3 3 2 3 3 4 6 5 5 5 6 4 3 5 3 4 4 4 3 4 4 6 6 6 4 4 5 3 4 4 5 3 2 2 4 5 4 4 5 5 1 3 5 7 8 8 9 9 10 10 11 12 13 13 14 13 14 13 12 12 9 9 6 5 9 2 4 3 4 4 3 2 3 3 3 3 1 7 2 3 4 4 5 2 3 1 1
2 2 3 5 5 3 1 3 3 4 4 4 3 4 3 5 4 5 3 5 5 5 4 5 2 3 4 3 3 4 1 2 3 5 4 5 1 2 2 3 3 4 6 6 7 8 9 9 9 9 11 11 12 13 13 14 13 13 13 11 14 12 8 6 10 12 6 3 1 3 2 2 1 3 3 3 3 2 2 4 1 1 3 1 2 6 4
2 4 4 4 6 6 6 6 6 6 7 6 5 5 4 6 4 4 3 5 6 5 5 3 3 3 3 5 3 4 3 4 4 3 5 1 2 4 3 3 5 5 7 8 8 8 8 7 8 10 10 11 12 13 13 13 13 13 13 13 12 13 15 12 8 10 12 6 3 1 2 4 3 3 3 3 2 1 1 2 1 4 2 1 3 1 2
Wind_Direction
348 350 352 350 345 342 341 343 340 337 338 342 356 318 287 287 349 91 120 151 228 250 272 254 239 253 309 319 307 311 301 279 294 307 310 307 193 256 247 279 290 273 293 332 318 290 266 229 217 204 214 202 220 167 192 202 189 209 195 212 191 69 218 195 184 180 181 192 182 206 203 195 202 212 222 200 193 200 210 210 192 208 216 216 197 204 156
348 350 352 351 348 344 341 340 337 333 344 344 328 318 321 313 308 154 129 162 197 261 312 330 321 325 330 329 324 322 307 302 298 269 284 308 251 243 280 280 261 276 294 280 278 307 279 198 267 201 183 160 151 173 195 195 184 196 184 222 142 201 193 206 175 174 172 181 176 197 215 202 203 204 216 212 203 203 217 217 211 219 210 223 218 197 178
349 353 352 352 351 348 344 340 333 331 334 336 327 323 320 282 253 251 144 165 195 272 325 300 305 310 317 322 318 336 347 356 295 251 262 267 284 301 268 286 297 290 292 278 274 267 265 283 212 301 170 109 118 160 203 197 191 200 168 272 157 242 168 207 193 171 171 180 180 188 192 199 202 210 202 220 213 198 204 214 198 218 203 219 223 203 157
345 351 353 352 352 351 347 341 333 328 331 334 334 335 288 336 342 61 160 190 205 247 245 269 303 308 318 320 326 339 334 337 357 239 308 185 228 281 298 294 279 280 270 270 279 272 209 228 273 231 229 151 177 166 198 195 203 171 191 235 213 222 241 221 238 193 185 184 185 187 196 192 208 196 209 202 217 209 209 209 221 214 196 212 218 216 172
343 352 353 353 353 353 351 343 335 328 326 330 325 299 255 287 309 0 335 300 215 242 241 294 302 304 325 307 329 320 327 330 348 144 267 167 164 213 286 305 311 305 313 313 308 258 238 208 248 240 256 162 152 161 199 198 214 139 175 241 248 230 234 217 244 266 234 186 196 186 199 203 211 204 201 203 206 223 213 208 215 214 206 212 213 213 224
343 350 352 353 353 354 353 346 336 329 321 324 305 290 353 313 30 323 47 296 326 330 44 350 323 304 292 268 296 300 318 337 342 345 57 159 167 155 282 270 257 273 301 304 289 266 246 240 232 244 251 283 165 169 202 200 215 221 212 196 238 230 239 208 226 236 242 238 206 181 187 206 203 211 202 209 205 209 220 213 217 210 223 214 187 211 218
341 343 348 350 353 355 354 349 338 329 323 320 328 352 29 350 327 11 41 301 300 310 303 307 308 298 273 249 276 312 334 331 340 337 330 312 191 178 225 238 253 291 294 276 282 288 284 194 323 241 245 216 185 194 175 213 191 205 232 211 204 259 252 224 212 228 232 243 225 177 188 199 209 209 209 205 210 208 212 221 220 222 212 236 258 201 213
342 340 341 351 354 357 358 352 343 328 325 313 40 44 356 21 352 333 337 303 282 264 265 281 289 311 310 324 347 331 331 333 335 336 333 329 356 165 237 233 203 215 261 272 252 258 268 336 266 113 350 304 269 250 198 179 192 192 218 217 189 248 197 250 231 222 220 228 209 189 219 210 205 203 212 211 213 215 213 220 225 227 226 230 242 268 221
343 340 336 340 353 358 2 355 347 329 328 9 3 54 22 360 328 318 317 311 294 306 310 306 306 309 357 346 335 320 332 336 333 325 331 329 332 311 292 302 207 189 216 235 255 265 275 270 259 261 235 262 52 319 249 199 188 194 199 216 188 209 270 257 232 226 221 226 231 232 217 209 218 212 204 203 206 209 202 210 205 210 216 218 234 230 241
342 339 334 336 353 357 3 360 349 337 322 360 4 19 8 346 359 319 307 290 293 288 283 305 312 324 2 329 321 322 319 322 327 326 328 329 313 317 315 317 332 220 190 231 231 239 253 257 267 291 293 258 255 246 251 289 217 191 209 196 219 201 236 242 215 228 225 225 223 217 230 239 226 220 220 213 209 212 206 209 211 216 219 223 220 229 229
338 337 335 334 344 355 358 1 355 344 335 17 357 7 4 1 339 331 307 295 290 302 333 308 320 346 326 323 317 316 313 323 324 325 316 310 319 324 315 317 315 328 296 341 282 235 242 250 261 268 244 245 240 223 257 252 265 225 202 198 219 212 224 254 262 250 239 229 228 233 221 216 220 210 209 215 217 206 213 204 209 209 212 234 233 238 238
335 335 331 328 332 344 352 354 354 352 335 346 350 354 10 348 337 321 326 313 301 314 312 323 333 330 313 323 318 316 318 322 321 322 308 311 312 317 325 318 323 318 351 324 301 298 272 250 245 247 251 239 231 234 221 237 216 245 213 209 199 213 228 246 243 249 235 240 247 224 225 223 216 208 200 205 219 211 214 215 206 211 213 221 231 234 235
328 330 326 325 330 334 342 346 349 347 341 327 333 355 356 354 333 337 319 303 290 315 323 317 313 292 337 331 320 315 317 317 323 323 308 301 308 318 326 318 316 324 322 314 335 11 322 259 207 223 230 210 224 224 222 215 210 202 236 205 196 211 209 233 253 253 255 261 241 232 231 133 188 199 216 196 205 218 208 218 213 212 217 217 227 236 236
321 324 325 324 325 329 331 337 343 341 337 322 318 348 340 342 346 337 337 317 299 301 311 298 301 345 337 321 317 313 314 328 333 327 325 319 313 325 328 325 327 319 314 341 314 308 16 288 219 218 177 189 196 213 214 210 202 199 203 200 194 205 244 240 269 273 276 283 248 229 67 156 190 170 209 192 200 198 207 212 213 215 216 219 228 230 233
314 317 324 324 321 321 328 332 337 337 328 321 311 312 332 342 351 335 328 304 300 302 279 304 347 329 320 312 316 319 323 334 330 334 324 319 333 337 325 341 337 321 311 301 333 299 284 235 222 172 163 182 187 202 194 200 188 202 205 212 185 187 227 238 291 298 301 289 248 208 185 205 166 60 43 203 246 255 203 217 227 210 216 217 223 228 228
310 316 320 323 317 319 329 334 330 331 328 313 307 317 327 345 319 307 315 302 307 300 18 1 332 322 314 307 309 323 332 326 329 321 325 339 331 327 347 346 335 322 324 344 131 2 256 242 204 185 186 191 180 163 186 177 182 187 202 207 225 309 308 292 294 286 284 272 289 306 241 70 332 94 300 75 307 245 183 214 234 196 218 215 222 228 228
307 312 315 319 318 322 329 331 326 325 330 318 317 318 311 76 298 325 318 307 272 264 294 303 304 305 301 308 338 331 345 321 325 328 321 326 328 334 340 335 332 339 346 325 28 25 304 297 310 255 110 166 166 175 169 182 172 168 174 197 221 218 226 279 255 267 258 275 261 266 339 101 14 344 237 244 152 196 199 210 202 42 253 216 217 228 229
302 306 311 313 317 321 325 328 325 324 326 321 294 305 300 298 262 290 298 291 293 286 274 295 331 319 312 334 307 312 309 300 306 315 299 310 321 348 330 328 338 355 1 351 350 330 355 326 10 289 149 162 164 159 185 167 176 174 177 190 205 202 214 243 263 269 302 287 153 67 246 51 334 277 297 169 187 180 201 205 56 344 343 334 280 228 216
301 304 307 311 315 321 322 320 323 323 326 323 311 298 286 243 227 247 289 287 279 271 282 305 303 289 285 287 275 285 284 291 295 296 308 317 359 343 318 315 358 348 355 355 329 350 349 341 8 298 285 148 219 165 159 173 173 176 179 199 201 189 160 270 258 265 258 297 347 231 313 63 324 338 46 113 171 189 181 34 307 317 354 325 287 338 16
297 300 301 309 314 315 319 319 320 323 322 325 316 305 302 288 270 248 278 290 295 283 291 292 285 284 300 295 297 294 306 301 293 302 312 317 338 338 322 7 6 356 350 360 356 4 348 352 348 16 317 226 78 331 171 182 176 182 188 194 219 165 174 246 253 255 240 202 123 23 243 72 354 351 305 68 288 60 12 269 347 2 7 315 309 347 106
290 293 297 302 307 310 315 317 317 321 321 318 314 307 300 294 200 233 243 271 289 295 294 275 310 305 299 289 284 284 281 278 292 302 311 303 319 315 338 358 342 351 356 348 337 339 352 324 349 332 264 300 288 237 181 173 184 184 203 195 209 182 222 226 256 282 298 304 85 121 311 338 358 315 44 49 29 74 304 336 64 23 7 334 358 10 4
288 290 292 296 301 308 307 308 314 316 318 318 315 297 285 293 276 268 271 263 270 260 271 290 290 282 278 273 269 263 263 263 267 281 294 298 302 300 293 292 322 355 2 332 330 326 356 348 303 333 330 340 305 4 327 220 201 121 128 96 239 170 222 9 85 298 285 19 273 224 263 306 335 302 80 110 100 45 106 88 62 43 53 21 342 32 63
282 286 287 287 293 299 303 306 315 315 313 314 309 291 293 299 298 315 297 280 272 273 281 278 275 271 268 263 252 248 246 246 259 267 265 274 293 283 282 308 349 18 348 359 345 323 324 331 304 310 311 343 335 315 233 236 229 186 195 188 240 303 256 140 233 252 317 282 262 278 236 246 195 183 289 136 133 119 31 46 45 61 63 36 33 46 65
276 283 283 286 290 294 296 300 305 308 306 306 303 299 294 297 301 301 287 281 290 302 297 262 274 285 290 308 302 209 223 237 241 246 247 252 266 288 266 23 344 314 338 36 7 321 333 320 308 351 275 278 307 299 303 189 40 323 275 201 206 215 227 251 274 163 201 259 245 255 309 353 105 263 104 55 23 15 40 59 41 45 42 43 44 52 55
278 282 286 290 295 299 298 301 304 304 308 307 300 283 275 276 271 270 287 305 307 316 300 302 289 267 274 287 286 271 260 254 227 220 226 223 236 255 281 338 346 333 321 341 337 315 308 305 305 303 309 282 274 319 345 346 359 305 252 205 201 188 71 256 244 256 253 229 175 238 194 342 358 268 130 88 65 20 12 22 50 35 25 38 34 41 51
277 280 287 292 294 297 300 302 307 305 304 308 302 297 294 290 297 292 278 271 274 276 286 296 290 297 298 298 293 302 300 285 266 229 218 225 227 241 267 292 297 300 296 294 273 290 291 275 283 288 292 312 8 325 348 129 247 295 286 311 315 55 167 250 246 245 270 275 248 136 140 156 181 214 44 27 34 33 304 46 38 34 12 24 51 40 37
279 283 287 288 291 293 296 303 307 311 307 301 297 289 285 286 286 278 280 293 306 279 235 261 298 307 326 311 301 283 259 245 242 249 240 225 231 237 246 260 274 283 278 272 247 262 269 271 274 284 265 292 334 293 271 251 263 278 270 257 235 244 250 243 246 290 257 11 2 2 317 130 278 75 62 60 8 293 42 33 44 32 22 1 27 50 49
277 282 283 284 289 293 298 301 303 309 308 294 283 285 282 279 264 260 262 257 240 279 303 302 302 302 310 282 287 301 290 266 253 248 243 240 232 232 242 249 258 263 267 270 262 234 245 260 272 262 258 346 316 300 3 29 329 271 235 321 285 289 13 334 272 256 271 81 81 98 282 318 289 23 39 103 170 8 44 43 38 17 355 347 40 50 41
273 277 277 280 288 295 301 303 301 303 304 296 293 289 271 240 252 289 280 252 251 270 286 290 287 280 295 346 323 298 281 290 279 264 259 255 248 235 231 238 246 255 262 265 269 289 280 283 279 282 315 16 293 297 310 294 251 257 245 232 269 330 69 285 303 302 301 317 326 346 337 268 215 112 75 43 34 93 98 59 68 98 338 14 50 40 45
272 273 279 285 291 297 300 299 299 301 298 299 301 288 290 160 119 209 135 233 226 287 294 311 311 288 325 313 296 302 295 292 285 279 270 260 250 240 237 228 231 241 254 254 262 260 272 279 285 280 277 222 277 308 284 255 276 19 325 333 307 240 232 241 306 308 298 346 353 341 241 224 84 40 45 48 48 16 28 58 42 49 75 65 54 48 40
269 275 283 287 293 295 292 294 294 296 289 282 292 289 282 264 113 161 137 221 225 282 292 279 279 298 290 262 266 288 305 300 292 285 276 268 261 248 234 224 226 225 237 243 244 258 279 267 280 297 287 203 305 287 294 299 306 82 302 295 291 289 254 69 86 319 321 313 35 247 203 75 127 180 93 71 81 85 60 53 48 30 357 46 55 57 50
276 281 282 289 286 284 287 286 289 284 281 275 254 261 322 340 1 108 106 309 317 281 285 301 303 295 309 298 302 312 304 309 287 266 248 224 242 223 230 220 233 214 229 255 258 258 246 257 270 283 286 93 217 285 290 294 294 328 195 233 241 265 316 78 64 39 330 298 94 356 64 97 59 76 88 65 72 70 44 30 28 13 280 88 72 49 41
277 280 283 285 288 285 285 285 282 285 284 294 304 298 285 262 239 268 217 286 271 264 279 287 286 302 283 312 315 293 339 309 271 232 266 183 243 197 235 211 232 243 185 234 241 252 254 253 268 265 272 134 270 286 285 289 301 322 265 265 275 325 336 63 97 148 193 53 80 263 255 145 27 111 112 90 64 47 45 36 16 350 358 60 82 88 89
272 279 284 286 286 287 283 283 286 279 270 263 259 242 218 31 219 211 239 258 278 281 272 273 284 291 294 296 289 81 13 336 304 294 290 165 273 257 266 209 208 246 196 226 240 255 255 269 263 275 285 251 251 276 278 289 292 277 291 307 342 336 323 266 187 185 112 99 94 109 356 335 317 339 34 31 37 32 16 40 39 10 336 8 40 49 48
274 280 284 286 285 285 287 279 276 243 248 245 254 89 94 52 8 169 190 211 236 213 210 226 229 295 310 322 306 23 9 316 311 352 300 286 295 277 280 266 169 242 210 209 257 264 286 263 287 283 274 324 272 270 279 272 282 320 336 325 8 342 320 299 260 247 159 129 96 145 163 211 259 303 331 353 13 4 355 355 46 216 266 356 17 27 25
273 282 287 288 287 279 275 240 232 246 238 250 88 79 51 73 240 197 188 207 254 298 290 287 285 288 308 305 324 340 327 298 313 310 292 299 263 215 249 275 271 231 215 196 261 245 244 157 261 267 265 250 256 263 281 313 320 315 323 323 332 316 316 323 310 274 285 115 165 143 238 217 219 251 239 154 326 328 335 330 271 337 3 17 19 18 24
279 288 289 284 272 244 238 242 174 228 348 57 42 91 79 256 227 232 219 233 226 232 267 284 274 268 274 302 308 300 343 317 345 312 322 288 306 345 286 245 253 233 213 237 239 247 248 30 275 276 279 276 281 280 283 296 322 334 329 330 324 319 304 292 350 320 261 148 137 197 211 262 259 193 151 162 296 316 309 10 18 29 41 30 21 12 16
279 282 279 272 255 249 243 225 156 70 113 173 188 207 183 193 227 190 218 233 210 197 229 234 254 274 285 283 283 315 302 313 333 316 292 9 318 261 220 250 265 288 266 276 263 171 203 204 242 264 265 268 282 289 324 349 323 327 330 328 321 308 304 300 98 96 67 325 257 183 191 202 188 219 201 203 184 198 189 82 70 34 28 37 29 3 357
262 263 244 239 256 267 322 74 106 108 300 248 228 266 222 188 227 226 206 191 188 226 213 239 252 247 254 265 282 302 328 320 304 309 303 25 331 304 299 283 214 246 266 265 197 158 258 231 240 244 259 250 235 60 29 359 333 13 343 336 335 332 347 68 83 121 160 132 276 290 238 259 135 160 170 208 186 157 148 173 145 89 53 37 29 6 15
244 246 257 287 259 57 92 130 141 204 228 239 204 231 258 202 219 251 160 203 227 216 195 241 225 236 244 279 311 305 324 302 316 323 329 312 222 295 332 309 285 281 273 267 272 128 271 289 268 251 255 57 64 33 23 1 1 5 337 340 1 333 146 121 123 108 127 120 233 320 312 38 123 144 354 21 57 156 192 189 113 93 60 57 21 8 18
230 250 240 242 286 3 306 325 239 227 235 241 239 219 256 255 216 262 290 252 267 213 179 280 277 271 192 228 246 280 129 207 276 288 290 283 354 278 280 267 325 294 279 274 124 260 268 254 266 270 329 50 32 22 3 18 9 349 344 327 8 339 277 170 210 223 256 299 324 310 321 338 308 254 181 182 206 235 176 179 159 104 38 68 63 34 11
5 340 345 331 299 280 276 228 213 209 228 235 237 237 217 246 249 232 230 269 264 300 180 199 266 310 318 326 325 325 303 20 310 287 289 290 301 292 289 293 269 254 269 275 346 277 273 263 258 257 69 47 28 13 13 356 3 337 347 354 333 325 309 281 238 188 308 326 328 323 325 294 296 293 252 254 230 206 151 154 126 139 101 84 71 29 34
107 256 250 287 278 249 227 241 196 214 205 202 221 268 213 236 222 242 218 213 121 273 147 178 278 303 276 278 269 231 285 18 303 273 268 276 316 270 278 271 269 251 257 289 261 264 250 253 254 39 37 25 14 2 352 354 338 339 342 338 336 292 287 277 279 280 285 288 293 306 300 263 261 293 355 348 286 121 108 105 132 134 140 6 10 26 23
231 239 225 226 250 239 190 253 178 158 245 207 199 227 205 231 232 201 250 249 127 231 46 313 323 316 303 304 302 314 293 202 196 274 256 282 284 291 278 251 239 292 327 264 255 247 253 252 24 35 18 23 7 354 347 344 339 330 324 330 309 259 252 258 255 255 259 272 277 255 253 247 221 196 224 210 173 188 170 141 120 107 82 360 327 356 10
230 216 217 239 231 201 120 289 191 182 232 219 217 262 250 251 261 261 341 56 282 293 322 292 302 307 296 309 296 272 257 305 129 257 288 309 283 281 263 278 315 321 290 279 264 255 256 352 15 4 9 4 3 351 350 340 338 329 328 309 302 284 244 233 221 246 229 220 223 216 216 211 225 220 208 166 149 144 158 166 148 161 214 302 350 344 358
210 231 216 208 235 241 213 249 193 229 241 243 240 238 261 287 320 299 73 40 318 299 288 308 304 294 289 300 291 302 283 284 287 267 273 258 286 282 274 295 282 280 282 261 270 258 42 22 359 4 354 357 346 351 345 341 340 334 327 324 312 289 268 242 185 206 212 209 197 228 224 237 217 161 154 123 124 130 136 135 148 267 323 331 314 327 281
252 264 276 280 277 239 211 239 225 233 299 268 259 291 294 299 318 306 304 298 281 298 306 300 293 295 294 292 288 272 249 234 265 292 303 279 260 282 310 292 277 261 274 274 273 321 359 9 1 357 357 352 354 347 348 343 343 344 332 326 327 307 277 259 247 241 223 220 239 228 218 197 164 137 118 135 125 126 139 142 130 297 326 339 5 320 254
227 242 240 237 224 209 211 225 241 275 263 257 280 281 291 300 285 272 280 323 312 303 289 296 290 295 279 283 246 262 282 279 283 271 267 284 295 281 278 253 256 253 268 304 8 23 358 8 5 1 355 352 352 353 347 348 347 342 341 324 325 332 311 281 252 237 213 234 222 221 150 158 142 133 135 145 143 149 149 81 37 25 359 318 299 299 274
290 266 223 241 268 288 269 276 279 274 264 223 212 271 266 261 272 288 309 314 297 292 304 300 299 300 280 286 278 276 265 248 256 264 242 246 259 246 249 257 273 275 58 4 341 1 3 355 0 356 357 353 2 354 353 348 346 344 345 344 318 313 307 312 287 206 259 237 215 180 170 139 121 156 172 169 183 190 176 100 350 29 21 3 11 336 294
220 227 242 249 265 253 244 265 268 265 259 241 232 249 273 291 295 297 340 294 299 296 292 275 258 271 289 288 271 282 283 270 270 290 270 254 247 278 260 255 2 14 351 351 345 348 354 355 347 351 356 354 354 353 354 354 350 342 347 343 334 298 298 281 289 271 235 238 190 172 130 157 200 167 178 225 108 93 123 215 196 174 140 91 351 268 316
235 260 261 260 254 274 349 256 268 279 275 270 281 298 312 288 295 295 359 318 303 287 269 270 266 238 265 276 284 264 256 2 288 256 265 282 319 257 313 20 6 350 342 339 342 353 351 350 357 351 349 352 353 353 353 353 352 355 344 348 352 347 340 356 348 325 289 235 138 121 200 210 98 75 62 51 81 160 140 80 311 187 30 354 45 338 1
205 222 235 212 220 245 260 278 286 273 275 282 281 285 294 283 291 297 330 293 286 277 279 302 296 288 278 264 269 289 307 271 268 288 280 35 21 336 20 349 353 354 348 340 344 347 350 357 355 350 350 351 348 350 353 357 359 360 359 359 360 4 0 360 11 3 325 340 10 310 28 34 39 55 61 62 15 19 213 172 290 10 332 310 44 25 28